Location: Lima
(44.6384°N, 112.5920°W)
Time: 23:53:11
(UTC+00:00)

DUCHIFAT 1 - Pass Details

Date: 03 May 2024
Orbit: 538 x 556 km, 98.1° (Epoch: 19 May)

Event Time Altitude Azimuth Distance (km) Brightness Sun altitude
Rises 11:36:39 0° 22° (NNE) 2,748 ? -7.2°
Reaches altitude 10° 11:38:58 10° 32° (NNE) 1,844 ? -6.8°
Maximum altitude 11:42:36 33° 97° (E) 936 ? -6.3°
Drops below altitude 10° 11:46:11 10° 163° (SSE) 1,818 ? -5.7°
Sets 11:48:26 0° 173° (S) 2,702 ? -5.4°
